Ottumwa, IA

7:01 PM CDT on October 15, 2019 (GMT -0500)
Ottumwa Industrial

Weather History for KOTM - August, 2019

Change the Weather History Date:

Friday, August 9, 2019

  Actual Average Record
Temperature  
Mean Temperature 70 °F 74 °F  
Max Temperature 84 °F 84 °F 113 °F (1934)
Min Temperature 56 °F 63 °F 47 °F (1927)
Degree Days  
Heating Degree Days 0 0  
Month to date heating degree days 0 0  
Since 1 June heating degree days 4 23  
Since 1 July heating degree days 0 2  
Cooling Degree Days 5 9  
Month to date cooling degree days 76 83  
Year to date cooling degree days 723 662  
Since 1 June cooling degree days 660 598  
Growing Degree Days 20 (Base 50)    
Moisture  
Dew Point 57 °F    
Average Humidity 63    
Maximum Humidity 86    
Minimum Humidity 39    
Precipitation  
Precipitation 0.00 in 0.14 in 2.73 in (2010)
Month to date precipitation 0.20 1.29  
Year to date precipitation 26.72 23.38  
Sea Level Pressure  
Sea Level Pressure 29.98 in    
Wind  
Wind Speed 4 mph (NNE)    
Max Wind Speed 12 mph    
Max Gust Speed 14 mph    
Visibility 8 miles    
Events      
T = Trace of Precipitation, MM = Missing Value Source: NWS Daily Summary

Daily Weather History Graph

Daily Weather History Graph

Search for Another Location

Airport or City:

Astronomy

Aug. 09, 2019 Rise Set
Actual Time 6:13 AM CDT 8:16 PM CDT
Civil Twilight 5:42 AM CDT 8:46 PM CDT
Nautical Twilight 5:05 AM CDT 9:23 PM CDT
Astronomical Twilight 4:25 AM CDT 10:03 PM CDT
Moon 3:59 PM CDT (8/9) 1:10 AM CDT (8/9)
Length of Visible Light 15h 03m
Length of Day
14h 03m
Waxing Gibbous, 70% of the Moon is Illuminated
Aug 9
Waxing Gibbous
Aug 15
Full
Aug 23
Last Quarter
Aug 30
New
Sep 5
First Quarter

Hourly Weather History & Observations

Time (CDT) Temp. Heat Index Dew Point Humidity Pressure Visibility Wind Dir Wind Speed Gust Speed Precip Events Conditions
12:53 AM 66.9 °F - 57.9 °F 73% 29.96 in 10.0 mi North 8.1 mph - N/A   Clear
1:53 AM 64.9 °F - 57.0 °F 75% 29.97 in 10.0 mi North 4.6 mph - N/A   Clear
2:53 AM 62.1 °F - 57.0 °F 84% 29.97 in 10.0 mi NNE 3.5 mph - N/A   Clear
3:53 AM 62.1 °F - 55.9 °F 80% 29.97 in 10.0 mi North 4.6 mph - N/A   Clear
4:53 AM 61.0 °F - 55.0 °F 81% 29.97 in 10.0 mi NNE 4.6 mph - N/A   Clear
5:53 AM 57.9 °F - 54.0 °F 87% 29.99 in 10.0 mi NNE 3.5 mph - N/A   Clear
6:53 AM 57.0 °F - 54.0 °F 89% 30.01 in 10.0 mi Calm Calm - N/A   Clear
7:53 AM 64.0 °F - 59.0 °F 84% 30.02 in 10.0 mi Calm Calm - N/A   Clear
8:53 AM 71.1 °F - 57.9 °F 63% 30.02 in 10.0 mi Calm Calm - N/A   Clear
9:53 AM 73.9 °F - 55.0 °F 52% 30.02 in 10.0 mi Calm Calm - N/A   Clear
10:53 AM 75.9 °F - 55.0 °F 48% 30.03 in 10.0 mi South 4.6 mph - N/A   Clear
11:53 AM 79.0 °F - 52.0 °F 39% 30.02 in 10.0 mi North - - N/A   Clear
12:53 PM 80.1 °F 80.0 °F 54.0 °F 40% 30.01 in 10.0 mi Variable 4.6 mph - N/A   Clear
1:53 PM 80.1 °F 80.0 °F 54.0 °F 40% 29.99 in 10.0 mi North - - N/A   Clear
2:53 PM 82.0 °F 81.4 °F 55.0 °F 39% 29.98 in 10.0 mi NW 8.1 mph - N/A   Clear
3:53 PM 82.9 °F 82.1 °F 55.9 °F 39% 29.97 in 10.0 mi NW 5.8 mph - N/A   Clear
4:53 PM 82.9 °F 82.4 °F 57.0 °F 41% 29.96 in 10.0 mi Variable 5.8 mph - N/A   Clear
5:06 PM 82.9 °F 82.4 °F 57.0 °F 41% 29.97 in 7.0 mi NE 8.1 mph - N/A   Partly Cloudy
5:53 PM 82.0 °F 81.7 °F 57.0 °F 42% 29.96 in 8.0 mi North 5.8 mph - N/A   Partly Cloudy
6:53 PM 80.1 °F 80.4 °F 57.0 °F 45% 29.96 in 8.0 mi North 5.8 mph - N/A   Clear
7:02 PM 80.1 °F 80.4 °F 57.0 °F 45% 29.97 in 1.0 mi NNE 5.8 mph - N/A   Haze
7:08 PM 80.1 °F 80.4 °F 57.0 °F 45% 29.97 in 0.2 mi North 4.6 mph - N/A   Haze
7:15 PM 80.1 °F 80.6 °F 57.9 °F 47% 29.98 in 1.0 mi NNW 5.8 mph - N/A   Haze
7:17 PM 80.1 °F 80.6 °F 57.9 °F 47% 29.98 in 4.0 mi NNW 5.8 mph - N/A   Haze
7:53 PM 78.1 °F - 59.0 °F 52% 29.95 in 10.0 mi NNE 3.5 mph - N/A   Clear
8:53 PM 75.0 °F - 59.0 °F 57% 29.95 in 5.0 mi NE 5.8 mph - N/A   Haze
9:53 PM 73.9 °F - 59.0 °F 59% 29.97 in 10.0 mi ENE 3.5 mph - N/A   Clear
10:53 PM 71.1 °F - 60.1 °F 68% 29.98 in 10.0 mi ENE 5.8 mph - N/A   Clear
11:41 PM 66.0 °F - 61.0 °F 84% 29.98 in 4.0 mi ESE 5.8 mph - N/A   Haze
11:53 PM 66.9 °F - 60.1 °F 79% 29.96 in 10.0 mi ESE 4.6 mph - N/A   Clear